Wind_Speed
7 7 7 6 6 5 5 5 5 5 5 5 5 4 4 4 4 4 5 5 5 5 5 5 4 4 5 4 5 5 5 5 5 5 5 5 5 6 6 6 6 5 5
8 8 8 7 7 7 6 6 6 6 6 5 5 5 5 5 5 5 5 6 6 6 6 6 6 5 5 6 6 6 6 6 6 7 7 7 7 7 7 8 7 7 6
9 9 9 9 8 8 7 7 6 6 6 6 6 5 5 5 5 5 5 6 6 6 7 7 7 6 6 7 7 7 7 7 8 8 8 9 8 8 8 9 9 9 8
10 11 11 10 9 9 8 7 7 6 6 6 5 5 5 5 5 5 5 5 6 7 7 7 7 7 7 8 8 8 8 8 8 8 9 9 10 10 10 10 10 10 10
11 11 11 11 11 10 9 8 7 7 6 6 5 5 5 5 5 5 6 6 6 7 7 8 8 9 9 9 10 10 9 9 9 9 9 10 10 10 11 11 11 11 11
11 12 12 12 11 10 10 10 9 8 7 6 6 6 6 6 6 6 6 6 7 7 8 9 9 9 9 10 10 10 10 10 9 9 9 9 9 10 11 12 12 12 12
12 12 12 12 11 11 10 10 9 9 8 8 7 7 7 7 7 7 7 7 7 8 8 9 9 9 10 10 10 10 10 10 10 10 10 10 10 10 11 11 13 14 14
13 12 12 12 11 11 11 10 10 9 9 9 9 8 8 8 8 7 7 7 8 7 8 8 8 9 10 10 9 9 9 10 10 11 11 11 12 11 11 12 12 13 14
13 14 13 12 12 12 11 11 10 9 9 9 9 9 9 8 8 8 8 8 8 8 8 8 8 9 9 9 9 9 9 10 10 11 11 11 12 12 12 11 11 12 13
14 14 13 13 12 12 11 11 10 10 10 9 9 9 9 8 8 8 8 8 8 8 8 9 9 9 8 9 9 9 9 10 10 11 11 11 11 11 11 11 11 11 12
13 14 14 14 13 12 12 11 11 10 10 9 9 8 8 8 8 8 8 9 8 8 8 8 8 8 8 8 8 9 9 10 10 10 11 11 12 12 12 13 13 13 13
14 14 14 14 13 12 12 12 11 11 10 10 9 9 9 9 8 8 8 8 8 8 8 8 8 8 8 8 9 9 9 9 10 10 11 11 12 12 12 13 13 13 14
13 14 14 14 13 13 13 12 11 10 10 10 9 9 9 9 9 9 9 9 9 9 8 8 8 8 8 9 9 9 10 10 10 10 11 11 11 12 12 12 13 14 15
13 13 13 13 13 13 12 12 11 10 10 10 9 9 9 9 9 9 9 9 9 9 9 9 9 9 9 9 10 10 11 11 11 11 12 12 12 13 14 14 14 15 16
13 13 13 13 13 13 12 12 12 11 10 10 10 10 9 9 9 10 10 10 9 9 9 9 10 9 10 10 11 11 12 12 12 13 13 13 13 14 15 16 17 17 17
13 13 13 14 14 13 13 12 12 11 11 11 11 11 11 11 11 11 11 11 10 10 10 10 11 11 11 12 12 12 12 12 13 13 14 14 15 15 16 17 17 18 19
14 14 15 14 14 13 13 12 12 12 12 12 11 11 12 12 12 12 12 11 11 11 11 11 12 12 12 12 12 13 13 13 14 14 15 15 16 17 17 18 19 20 21
15 15 15 14 14 14 14 14 13 13 12 13 13 13 13 13 13 13 13 13 12 12 12 13 13 13 13 14 14 14 15 15 16 16 16 17 18 18 19 20 20 21 22
15 15 15 15 15 15 14 14 14 13 13 13 14 14 14 14 14 14 14 13 13 13 14 14 15 15 15 15 15 16 16 17 18 18 19 20 20 21 21 22 23 24 24
15 15 16 16 16 16 16 15 15 15 15 15 15 15 15 15 15 15 14 14 15 15 16 16 17 17 18 18 18 18 18 19 20 20 21 22 22 23 24 24 25 26 27
16 16 16 16 16 16 16 16 16 16 16 15 16 16 16 16 15 15 15 15 16 17 17 18 19 19 20 20 20 20 21 21 22 23 24 24 25 25 26 27 28 28 29
17 16 17 16 16 16 16 16 16 16 16 16 16 16 16 16 16 17 17 17 18 18 19 20 21 21 22 22 22 22 23 24 25 25 26 27 28 29 29 30 30 31 32
17 17 17 17 16 16 16 16 17 17 17 17 18 18 18 18 18 18 19 19 19 20 21 22 23 23 23 24 24 25 26 27 27 29 29 30 31 31 32 33 34 35 35
18 18 17 16 16 16 16 17 18 19 19 19 19 19 19 20 20 20 20 21 21 22 23 24 24 24 24 25 26 27 28 29 30 31 32 32 33 34 35 36 37 38 39
17 17 17 17 17 18 18 19 19 19 19 20 20 20 20 21 21 21 22 22 23 24 25 25 26 27 28 29 29 30 31 31 32 34 35 35 35 36 37 39 40 41 42
18 18 18 18 19 19 19 20 20 20 21 21 22 22 22 23 23 23 24 25 25 26 27 27 28 29 30 31 32 33 34 34 35 36 37 38 38 40 40 40 42 43 44
Wind_Direction
234 231 233 240 249 252 253 253 257 263 263 256 262 273 278 274 266 262 258 256 261 265 269 269 276 282 282 279 276 275 271 271 273 273 271 270 267 268 266 266 263 260 261
236 235 236 240 248 254 254 254 261 262 260 259 264 272 272 269 267 264 261 261 262 267 270 270 274 278 283 284 280 275 275 273 272 270 266 267 271 271 272 271 267 262 261
237 237 237 240 244 252 256 256 259 260 258 258 263 267 267 267 265 263 265 267 268 269 270 270 269 272 278 284 284 281 282 279 279 278 272 269 271 271 271 270 266 262 262
239 240 239 241 245 251 252 253 252 255 260 263 261 265 269 266 269 269 267 268 272 270 273 269 270 271 278 283 283 282 283 279 280 280 276 275 274 272 270 267 265 263 265
237 241 241 242 245 246 245 247 248 253 259 262 265 266 267 268 270 273 277 274 275 275 275 272 273 273 277 280 281 280 282 279 278 279 278 276 276 275 271 267 264 264 266
236 241 239 241 243 243 240 241 244 244 250 254 261 264 263 269 271 277 279 275 277 280 281 277 274 274 276 278 280 280 278 279 281 283 280 279 278 279 278 270 262 262 265
236 239 238 240 240 240 239 241 239 241 246 252 260 260 260 267 270 275 279 278 279 281 284 280 276 273 277 278 279 280 279 279 280 282 280 277 278 278 279 277 268 264 266
237 236 236 237 238 239 239 237 237 243 247 253 258 262 261 264 268 274 281 281 279 280 282 277 278 277 280 281 279 275 275 277 281 283 281 276 278 279 278 279 280 276 274
237 237 236 235 234 234 235 236 238 244 245 251 257 258 258 263 267 273 277 279 280 277 277 276 277 281 280 277 279 278 277 277 278 282 283 280 278 280 278 280 280 281 279
234 234 234 234 231 231 234 237 241 242 244 250 255 256 256 258 266 271 275 276 279 277 277 279 277 279 280 276 280 281 280 279 279 281 281 281 278 277 278 278 279 283 284
236 232 232 231 230 232 234 237 241 243 244 247 251 252 252 256 265 271 275 276 277 278 277 279 281 279 278 281 283 285 284 282 282 282 282 281 279 277 278 279 278 279 282
233 232 232 231 230 231 232 236 240 241 242 244 246 247 250 256 264 269 273 275 278 280 279 280 282 282 281 283 283 283 285 284 284 286 285 284 281 279 279 278 277 278 279
230 228 230 229 228 230 232 233 235 238 238 240 241 243 250 258 262 267 272 276 280 281 281 284 281 282 285 285 284 282 284 286 285 289 288 286 284 281 280 280 279 279 279
229 228 227 226 228 230 233 231 230 233 235 237 239 244 251 257 263 268 272 277 279 279 280 282 283 285 286 287 286 287 287 287 286 290 291 289 286 281 281 282 283 282 282
229 227 223 225 227 229 231 230 229 232 234 239 243 250 255 258 265 268 271 275 278 280 281 282 284 286 287 287 288 289 290 290 287 289 290 289 288 287 284 284 284 284 285
228 226 223 224 226 226 228 230 231 233 238 241 246 252 257 262 267 269 271 274 277 280 280 282 285 288 289 289 290 290 291 292 290 289 290 289 288 287 287 287 287 287 287
228 227 227 226 227 228 230 234 234 237 241 244 249 254 259 263 266 270 272 274 276 278 280 282 285 287 289 290 290 290 289 290 292 291 288 288 288 288 288 289 288 288 288
229 229 227 225 226 230 233 235 237 242 246 249 253 257 260 262 266 269 271 273 275 278 279 280 283 285 287 288 290 291 290 290 291 291 290 289 289 290 290 291 291 291 290
230 228 227 227 230 233 236 239 243 248 252 255 257 260 262 264 267 269 269 270 274 277 278 280 282 284 286 288 288 290 290 290 290 290 289 289 289 290 291 291 291 291 291
229 229 229 232 236 237 240 243 248 253 256 259 261 262 262 264 265 267 270 271 273 274 276 279 281 282 285 285 286 287 288 288 289 290 290 290 290 290 290 291 291 292 292
232 231 232 236 239 242 245 246 250 254 257 261 263 263 261 262 265 270 273 274 274 274 275 278 280 281 283 285 285 286 287 288 289 290 291 290 290 291 291 291 291 292 292
231 234 236 239 241 244 247 251 254 256 257 261 264 264 264 265 266 270 273 275 276 277 277 279 283 283 283 284 285 287 288 289 290 291 292 292 292 292 292 292 292 291 291
233 239 240 240 242 245 251 256 257 258 259 261 264 266 266 266 268 270 272 276 278 279 280 283 284 285 284 284 286 288 289 289 290 290 290 291 291 292 292 292 291 291 291
237 239 242 243 246 251 255 258 260 261 261 263 264 268 269 268 268 271 273 276 278 280 281 282 284 284 285 286 288 288 290 290 290 290 291 291 291 291 292 292 292 292 292
239 241 242 246 250 254 256 260 261 261 262 264 266 268 270 270 271 273 275 278 280 281 282 282 284 285 285 287 288 289 290 290 290 291 292 292 291 291 292 292 293 293 292
242 246 249 250 253 256 258 261 262 262 264 266 268 270 270 272 273 275 278 279 281 282 283 285 286 286 287 288 289 290 290 290 290 290 291 291 291 291 291 291 292 292 292
Height
5883 5885 5886 5887 5888 5889 5890 5890 5891 5891 5891 5892 5892 5892 5892 5892 5893 5893 5893 5893 5893 5894 5894 5894 5894 5894 5894 5894 5894 5894 5894 5894 5894 5894 5895 5895 5895 5895 5895 5895 5896 5896 5896
5882 5883 5884 5885 5886 5887 5888 5889 5890 5890 5890 5891 5891 5891 5891 5891 5891 5892 5892 5892 5892 5893 5893 5893 5893 5893 5893 5893 5893 5893 5893 5893 5893 5893 5893 5893 5893 5894 5894 5894 5894 5895 5895
5880 5881 5882 5884 5885 5886 5886 5887 5888 5889 5889 5889 5890 5890 5890 5890 5890 5890 5891 5891 5891 5891 5891 5892 5892 5892 5892 5892 5892 5892 5891 5891 5891 5891 5891 5892 5892 5892 5892 5892 5893 5893 5894
5878 5879 5880 5881 5883 5884 5885 5886 5887 5887 5888 5888 5889 5889 5889 5889 5889 5889 5889 5890 5890 5890 5890 5890 5890 5890 5890 5890 5890 5890 5890 5890 5890 5890 5890 5890 5890 5890 5890 5890 5891 5891 5892
5876 5877 5878 5880 5881 5882 5883 5884 5885 5886 5887 5887 5887 5888 5888 5888 5888 5888 5888 5888 5888 5888 5889 5889 5889 5889 5889 5889 5888 5888 5888 5888 5888 5888 5888 5888 5888 5888 5888 5888 5889 5889 5889
5873 5875 5876 5878 5879 5880 5881 5882 5883 5884 5885 5886 5886 5886 5887 5887 5887 5887 5887 5887 5887 5887 5887 5887 5887 5887 5887 5886 5886 5886 5886 5886 5886 5886 5886 5886 5886 5886 5886 5886 5886 5886 5887
5871 5873 5874 5876 5877 5878 5880 5881 5882 5883 5884 5884 5885 5885 5886 5886 5886 5886 5886 5886 5886 5885 5885 5885 5885 5885 5885 5884 5884 5884 5884 5884 5884 5884 5884 5883 5883 5883 5883 5883 5883 5884 5884
5869 5870 5872 5874 5875 5876 5878 5879 5880 5881 5882 5883 5883 5884 5884 5885 5884 5884 5884 5884 5884 5884 5883 5883 5883 5883 5882 5882 5882 5882 5882 5882 5882 5882 5881 5881 5881 5881 5881 5881 5881 5881 5881
5867 5868 5870 5872 5873 5874 5876 5877 5878 5879 5880 5881 5881 5882 5883 5883 5883 5883 5883 5882 5882 5882 5882 5882 5881 5881 5880 5880 5880 5880 5880 5880 5880 5880 5879 5879 5879 5879 5878 5878 5878 5878 5878
5864 5866 5867 5869 5871 5872 5874 5875 5877 5877 5878 5879 5879 5880 5881 5881 5881 5881 5881 5881 5881 5880 5880 5880 5880 5879 5879 5878 5878 5878 5878 5877 5877 5877 5877 5877 5876 5876 5876 5876 5876 5876 5875
5862 5863 5865 5867 5869 5871 5872 5873 5874 5875 5876 5877 5878 5878 5879 5879 5879 5880 5880 5880 5879 5879 5879 5878 5878 5877 5877 5877 5876 5876 5875 5875 5875 5874 5874 5874 5874 5874 5873 5873 5873 5873 5873
5860 5861 5863 5865 5867 5868 5870 5871 5872 5873 5874 5875 5876 5877 5877 5878 5878 5878 5878 5878 5878 5877 5877 5877 5876 5876 5875 5875 5874 5874 5873 5873 5873 5872 5872 5872 5871 5871 5871 5871 5870 5870 5870
5857 5859 5861 5863 5865 5866 5868 5869 5870 5871 5872 5873 5874 5875 5875 5876 5876 5876 5876 5876 5876 5876 5876 5875 5875 5874 5873 5873 5872 5872 5872 5871 5871 5870 5869 5869 5869 5869 5868 5868 5867 5867 5866
5856 5857 5859 5860 5862 5864 5865 5867 5868 5869 5871 5872 5872 5873 5874 5874 5874 5875 5875 5875 5874 5874 5874 5874 5873 5872 5871 5871 5870 5870 5869 5869 5868 5867 5867 5866 5866 5865 5865 5864 5864 5863 5863
5853 5855 5856 5858 5860 5862 5863 5865 5866 5867 5869 5870 5871 5871 5872 5872 5872 5873 5873 5873 5873 5872 5872 5872 5871 5870 5869 5869 5868 5867 5867 5866 5865 5865 5864 5863 5863 5862 5862 5861 5860 5859 5859
5851 5852 5854 5856 5857 5859 5861 5863 5864 5865 5867 5868 5868 5869 5870 5870 5870 5870 5871 5870 5870 5870 5870 5870 5869 5868 5867 5867 5866 5865 5864 5863 5863 5862 5861 5860 5859 5859 5858 5857 5856 5855 5854
5848 5850 5851 5853 5855 5857 5859 5860 5862 5863 5864 5865 5866 5867 5867 5868 5868 5868 5868 5868 5868 5868 5867 5867 5866 5866 5865 5864 5863 5862 5861 5860 5860 5859 5858 5857 5856 5855 5854 5853 5852 5850 5849
5845 5847 5849 5851 5853 5854 5856 5857 5859 5860 5862 5863 5863 5864 5865 5865 5865 5865 5865 5865 5865 5865 5865 5864 5864 5863 5862 5861 5860 5859 5858 5857 5856 5855 5854 5853 5852 5851 5849 5848 5847 5845 5844
5842 5844 5846 5848 5850 5851 5853 5855 5856 5857 5859 5859 5860 5861 5861 5862 5862 5862 5862 5862 5862 5862 5861 5861 5860 5860 5859 5858 5857 5856 5855 5854 5852 5851 5850 5849 5847 5846 5844 5843 5841 5839 5838
5839 5841 5843 5845 5846 5848 5850 5851 5853 5854 5855 5856 5857 5857 5858 5858 5858 5858 5858 5858 5858 5858 5858 5857 5856 5856 5855 5854 5853 5852 5851 5849 5848 5846 5845 5843 5842 5840 5838 5836 5835 5833 5831
5836 5838 5840 5842 5843 5845 5846 5848 5849 5850 5852 5852 5853 5853 5854 5854 5854 5855 5854 5854 5854 5854 5853 5853 5852 5851 5850 5849 5848 5847 5846 5844 5842 5841 5839 5837 5836 5834 5832 5830 5828 5826 5824
5833 5835 5837 5838 5840 5841 5843 5844 5845 5846 5847 5848 5849 5849 5849 5850 5850 5850 5850 5850 5850 5849 5849 5848 5847 5846 5845 5844 5842 5841 5840 5838 5837 5835 5833 5831 5829 5827 5825 5822 5820 5818 5815
5830 5832 5833 5835 5836 5838 5839 5840 5841 5842 5843 5844 5844 5845 5845 5846 5846 5846 5846 5845 5845 5844 5844 5843 5842 5840 5839 5838 5836 5835 5834 5832 5830 5828 5826 5824 5821 5819 5816 5814 5811 5809 5806
5826 5828 5830 5831 5832 5834 5835 5836 5837 5838 5838 5839 5840 5840 5840 5841 5841 5841 5841 5840 5839 5838 5838 5837 5836 5834 5833 5831 5830 5828 5826 5825 5822 5820 5818 5816 5813 5811 5808 5804 5801 5799 5796
5823 5824 5826 5827 5828 5829 5830 5831 5832 5833 5833 5834 5835 5835 5835 5835 5835 5835 5835 5834 5833 5832 5831 5830 5829 5827 5825 5824 5822 5821 5818 5816 5814 5811 5808 5807 5804 5801 5799 5795 5791 5788 5784
5819 5821 5822 5823 5824 5825 5826 5826 5827 5828 5828 5829 5829 5829 5829 5829 5829 5829 5828 5828 5827 5825 5824 5823 5821 5819 5818 5816 5814 5812 5810 5808 5805 5803 5799 5796 5794 5790 5788 5785 5781 5776 5772